Location: Montreal
(45.5087°N, 73.5540°W)
Time: 23:40:42
(UTC-04:00)

ISS - Pass Details

Date: 11 May 2026
Orbit: 415 x 423 km, 51.6° (Epoch: 10 June)

Event Time Altitude Azimuth Distance (km) Brightness Sun altitude
Rises 21:42:12 0° 257° (WSW) 2,349 0.5 -13.4°
Reaches altitude 10° 21:44:20 10° 263° (W) 1,488 -0.4 -13.7°
Maximum altitude 21:47:35 48° 339° (NNW) 556 -2.7 -14.1°
Drops below altitude 10° 21:50:50 10° 55° (NE) 1,494 -1.1 -14.5°
Enters shadow 21:53:39 -2° 63° (ENE) 2,628 0.1 -14.8°
